Regional Weather Roundup
Issued by NWS Upton, NY

Current Version | Previous Version | Text Only | Print | Product List | Glossary On
Versions: 1 2 3 4 5 6 7 8 9 10 11 12 13 14 15 16 17 18 19 20 21 22 23 24 25 26 27 28 29 30 31 32 33 34 35 36 37 38 39 40 41 42 43 44 45 46 47 48 49 50
000
ASUS41 KOKX 290405
RWROKX

REGIONAL WEATHER ROUNDUP
NATIONAL WEATHER SERVICE NEW YORK NY
1200 AM EDT TUE JUL 29 2014

NOTE: "FAIR" INDICATES FEW OR NO CLOUDS BELOW 12,000 FEET WITH NO
SIGNIFICANT WEATHER AND/OR OBSTRUCTIONS TO VISIBILITY.

NYZ071-072-176-178-NJZ106-104-290500-
NEW YORK CITY METRO AREA


CITY           SKY/WX    TMP DP  RH WIND       PRES   REMARKS
CENTRAL PARK   PTCLDY    69  56  62 VRB6      29.72S
LAGUARDIA APRT PTCLDY    69  58  67 NW21      29.68S
KENNEDY INTL   PTCLDY    70  57  63 NW18G25   29.68F
NEWARK/LIBERTY PTCLDY    68  58  70 W15G21    29.70S
BRNX BOT. GARD   N/A     68  57  68 W8        29.68F
TETERBORO      CLEAR     70  56  61 NW12G17   29.69R
$$

NYZ177-179-078>081-290500-
LONG ISLAND NEW YORK

CITY           SKY/WX    TMP DP  RH WIND       PRES   REMARKS
FARMINGDALE    CLEAR     68  57  68 NW12G21   29.67S
ISLIP          PTCLDY    70  59  68 NW13      29.63F
SHIRLEY        CLEAR     69  60  73 W10       29.64F
WESTHAMPTON    CLEAR     69  59  70 W12       29.65S
MONTAUK POINT    N/A     72  64  76 W10       29.62F
$$

NYZ052-065-067-290500-
HUDSON VALLEY

CITY           SKY/WX    TMP DP  RH WIND       PRES   REMARKS
WHITE PLAINS   MOCLDY    66  58  75 NW16      29.67S
NEWBURGH       NOT AVBL
MONTGOMERY     CLOUDY    65  56  72 W12       29.71R
POUGHKEEPSIE   MOCLDY    68  57  68 W6        29.67R
ALBANY         CLOUDY    62  58  86 W9        29.69R
$$

NJZ001-105-106-008-010-013-015-019>022-104-290500-
NEW JERSEY

CITY           SKY/WX    TMP DP  RH WIND       PRES   REMARKS
NEWARK/LIBERTY PTCLDY    68  58  70 W15G21    29.70S
TETERBORO      CLEAR     70  56  61 NW12G17   29.69R
CALDWELL       CLEAR     66  55  67 NW9       29.71S
MORRISTOWN     CLEAR     68  57  68 W6        29.72R
SOMERVILLE     CLEAR     66  57  72 NW6       29.72S
LINDEN         FAIR      69  58  67 NW13G22   29.73R
SUSSEX         MOCLDY    66  56  70 VRB3      29.74R
ANDOVER          N/A     63  57  81 VRB7      29.75S
TRENTON        PTCLDY    67  56  67 MISG      29.74S
MILLVILLE      CLOUDY    69  61  75 NW12      29.76R
ATLANTIC CITY  MOCLDY    70  59  68 NW14      29.73S
WRIGHTSTOWN    CLEAR     67  59  75 NW10      29.72S
TOMS RIVER     CLEAR     68  59  73 NW6       29.73S
BELMAR         CLEAR     68  57  68 W12       29.71S
$$

PAZ047>061-062-071-290500-
EASTERN PENNSYLVANIA

CITY           SKY/WX    TMP DP  RH WIND       PRES   REMARKS
PHILADELPHIA   MOCLDY    71  59  65 NW12      29.76S
ALLENTOWN      PTCLDY    65  55  70 NW6       29.78R
SCRANTON       CLOUDY    62  54  74 NW9       29.82R
$$

CTZ002-004>006-009-010-012-RIZ004-006-007-MAZ004-011-015-290500-
SOUTHERN NEW ENGLAND
 IN CT

CITY           SKY/WX    TMP DP  RH WIND       PRES   REMARKS
BRADLEY INTL   PTCLDY    66  59  78 W9        29.62R
HARTFORD       CLOUDY    68  58  70 W12G18    29.62R
DANBURY        MOCLDY    66  55  67 W8        29.68S
WTRBRY/OXFORD  CLOUDY    64  55  72 NW13G18   29.68R
BRIDGEPORT     PTCLDY    70  61  73 NW10      29.64R
MERIDEN        CLEAR     67  59  75 NW13      29.63R
NEW HAVEN      CLEAR     71  59  65 NW9G21    29.63S
CHESTER        FAIR      66  63  88 W6        29.63S
GROTON         CLEAR     69  62  78 W7        29.60S
WILLIMANTIC    CLEAR     66  62  87 W3        29.61R

 IN RI

CITY           SKY/WX    TMP DP  RH WIND       PRES   REMARKS
PROVIDENCE     CLEAR     71  61  70 W10       29.59R
BLOCK ISLAND   CLEAR     70  63  78 W15       29.61S
WESTERLY       CLEAR     71  61  70 VRB6      29.61R

 IN MA

CITY           SKY/WX    TMP DP  RH WIND       PRES   REMARKS
BOSTON         PTCLDY    69  63  81 SW10      29.55R
WORCESTER      MOCLDY    64  61  90 W13       29.59R
WESTFIELD      PTCLDY    66  59  78 NW7       29.62R
PROVINCETOWN   CLEAR     70  66  88 SW15      29.56F
NANTUCKET      CLEAR     67  64  90 S15       29.61F
$$

ANZ330-335-338-340-345-350-353-355-290500-
COASTAL MARINE OBSERVATIONS


STATION/POSITION TIME  SKY/WX   TEMP    WIND        PRES    VSBY  WAVE
                                AIR SEA DIR/SP/G                  HT/PER
                 (UTC)          (F)     (DEG/KT/KT) (MB)    (MI)  (FT/S)
NY HARB ENTRANCE NOT AVBL
4S FIRE IS       NOT AVBL
23SW MTP         0400            71 69              1002.4          6/ 6
HUDSON CANYON    0400            76 74  270/ 17/ 23 1004.2          6/ 8
EXECUTION ROCKS  0400            69 70  300/ 16/ 19   N/A
WESTERN LI SOUND 0400            70     300/ 14/ 19   N/A           1/ 3
CENTRAL LI SOUND 0400            71 71  270/ 17/ 19   N/A           3/ 5
EASTERN LI SOUND 0300            70 68  260/ 12/ 16   N/A
ROBBINS REEF     0400            69     300/ 23/ 26   N/A
$$


>>>>>>>>>>>>>>>>>>>>>>>>>>>> KEY <<<<<<<<<<<<<<<<<<<<<<<<<<<
>                                                          <
>     SKY/WX - SKY CONDITION/PRESENT WEATHER               <
>     TMP    - TEMPERATURE IN FAHRENHEIT                   <
>     DP     - DEWPOINT IN FAHRENHEIT                      <
>     RH     - RELATIVE HUMIDITY IN PERCENT                <
>     WIND   - DIRECTION AND SPEED IN MPH                  <
>     PRES   - MEAN SEA LEVEL PRESSURE IN INCHES OF HG     <
>     WCI    - WIND CHILL INDEX                            <
>     VSB    - VISIBILITY IN MILES                         <
>     HX     - HEAT INDEX                                  <
>     TC     - TEMPERATURE IN CELSIUS                      <
>     VRB    - VARIABLE WIND DIRECTION                     <
>                                                          <
>>>>>>>>>>>>>>>>>>>>>>>>>>>> KEY <<<<<<<<<<<<<<<<<<<<<<<<<<<





USA.gov is the U.S. government's official web portal to all federal, state and local government web resources and services.